sat.trackr.live / text

‹ back to catalog

RASAT

NORAD 37791 · 2011-044D

PAYLOAD ACTIVE UNKNOWN

§ Identity

Operator
Country
TURK
Launch date
2011-08-17
Launch site
DLS
Launch vehicle
Mass (kg)
RCS (m²)
0.58

Purposes: earth_obs

External: N2YO · Heavens-Above · Gunter

§ Orbital elements

Epoch: 2026-05-25T05:08:19.940352Z

Period
98.08 min
Inclination
98.0558°
Eccentricity
0.0019187
Mean motion
14.68139188 rev/d
Perigee alt
653.5 km
Apogee alt
680.5 km
Semi-major
7,045.2 km
B*
1.2815e-5
RAAN
236.9623°
Arg perigee
265.1993°
Mean anomaly
179.6749°
Rev number
78,981

§ Raw data

RASAT1 37791U 11044D   26145.21411968  .00000025  00000+0  12815-4 0  99942 37791  98.0558 236.9623 0019187 265.1993 179.6749 14.68139188789811

JSON: /api/v1/satellites/37791 · /tle

For live sub-satellite position, see the globe view (requires WebGL).

§ Visibility from observer

Set your observer location to see the next 7 days of passes ≥ 10°. The values pass through the URL so the page stays shareable.

No JS? Fill the form by hand. The geolocation button needs JavaScript.